This is the latest recevied weather packets stored in our database for station/object SV9TNF-52. If no packets are shown the sender has not sent any weather packets the latest 10 day(s).
| Time | Temp. | Humidity | Pressure | Rain* | Wind** | Luminosity | Snow |
|---|---|---|---|---|---|---|---|
| 1788639772 | 23.33° C | 67% | 1022.7 hPa | 0 mm | 4.92 m/s, 156° | - | - |
| 1788639472 | 22.78° C | 67% | 1022.7 hPa | 0 mm | 6.71 m/s, 233° | - | - |
| 1788639172 | 22.78° C | 67% | 1022.7 hPa | 0 mm | 4.92 m/s, 99° | - | - |
| 1788638872 | 23.33° C | 66% | 1022.7 hPa | 0 mm | 5.81 m/s, 233° | - | - |
| 1788638572 | 23.33° C | 66% | 1022.7 hPa | 0 mm | 4.02 m/s, 173° | - | - |
| 1788638272 | 23.33° C | 66% | 1022.7 hPa | 0 mm | 5.81 m/s, 180° | - | - |
| 1788637972 | 23.33° C | 65% | 1022.7 hPa | 0 mm | 4.47 m/s, 208° | - | - |
| 1788637672 | 23.89° C | 65% | 1022.7 hPa | 0 mm | 4.92 m/s, 262° | - | - |
| 1788637372 | 24.44° C | 64% | 1022.7 hPa | 0 mm | 2.68 m/s, 219° | - | - |
| 1788637071 | 24.44° C | 64% | 1022.7 hPa | 0 mm | 5.36 m/s, 229° | - | - |
| 1788636771 | 24.44° C | 64% | 1022.7 hPa | 0 mm | 4.02 m/s, 294° | - | - |
| 1788636471 | 24.44° C | 64% | 1022.7 hPa | 0 mm | 6.71 m/s, 235° | - | - |
| 1788636171 | 24.44° C | 65% | 1023 hPa | 0 mm | 2.68 m/s, 269° | - | - |
| 1788635871 | 24.44° C | 65% | 1023 hPa | 0 mm | 5.81 m/s, 268° | - | - |
| 1788635571 | 24.44° C | 65% | 1023 hPa | 0 mm | 5.81 m/s, 223° | - | - |
| 1788635271 | 24.44° C | 66% | 1023 hPa | 0 mm | 6.26 m/s, 248° | - | - |
| 1788634971 | 23.89° C | 67% | 1023 hPa | 0 mm | 3.13 m/s, 264° | - | - |
| 1788634670 | 23.89° C | 67% | 1023 hPa | 0 mm | 4.92 m/s, 229° | - | - |
| 1788634370 | 23.89° C | 68% | 1023 hPa | 0 mm | 6.71 m/s, 253° | - | - |
| 1788634070 | 24.44° C | 68% | 1022.7 hPa | 0 mm | 4.92 m/s, 3° | - | - |
| 1788633770 | 24.44° C | 68% | 1022.7 hPa | 0 mm | 4.02 m/s, 276° | - | - |
| 1788633470 | 24.44° C | 69% | 1022.7 hPa | 0 mm | 7.15 m/s, 213° | - | - |
| 1788633170 | 24.44° C | 68% | 1022.7 hPa | 0 mm | 4.92 m/s, 54° | - | - |
| 1788632870 | 24.44° C | 69% | 1022.7 hPa | 0 mm | 5.81 m/s, 271° | - | - |
| 1788632570 | 24.44° C | 68% | 1022.7 hPa | 0 mm | 3.13 m/s, 252° | - | - |
* Rain latest hour (hover to see other rain measurements)
** Current wind speed in m/s (hover to see current wind gust speed)